FW6684 Weather Reports


Display with metric or nautical units.
time (UTC)temp
F
wind
direction
speed
MPH
gust
MPH
rain 1hr
in
rain 24hr
in
rain mn
in
humidity
%
barometer
mb
20260504172044 58 0 0.0 0.0 0.00 0.01 0.00 80 1017.0
20260504171553 58 0 0.0 0.0 0.00 0.01 0.00 81 1016.9
20260504171045 58 0 0.0 0.0 0.00 0.01 0.00 81 1017.0
20260504170544 58 0 0.0 0.0 0.00 0.01 0.00 81 1017.0
20260504151044 57 0 0.0 0.0 0.00 0.01 0.00 85 1017.3
20260504150544 56 0 0.0 0.0 0.00 0.01 0.00 84 1017.3
20260504141046 57 0 0.0 0.0 0.00 0.01 0.00 85 1017.2
20260504140545 57 0 0.0 0.0 0.00 0.01 0.00 85 1017.3
20260504130545 57 0 0.0 0.0 0.00 0.01 0.00 84 1017.3
20260504110544 55 0 0.0 0.0 0.00 0.01 0.00 87 1017.4
20260504100543 54 0 0.0 0.0 0.00 0.01 0.00 89 1017.6
20260504081555 52 0 0.0 0.0 0.00 0.00 0.00 92 1017.0
20260504081043 52 0 0.0 0.0 0.00 0.00 0.00 92 1017.0
20260504080547 53 0 0.0 0.0 0.00 0.00 0.00 92 1016.9
20260504050544 54 0 0.0 0.0 0.00 0.00 0.00 94 1015.2
20260504045545 54 0 0.0 0.0 0.00 0.00 0.00 93 1015.1
20260504045044 54 0 0.0 0.0 0.00 0.00 0.00 93 1015.1
20260504044601 54 0 0.0 0.0 0.00 0.00 0.00 93 1015.0
20260504044045 54 0 0.0 0.0 0.00 0.00 0.00 93 1015.1
20260504043545 54 0 0.0 0.0 0.00 0.00 0.00 93 1015.1
20260504043054 54 0 0.0 0.0 0.00 0.00 0.00 93 1015.1
20260504042546 54 0 0.0 0.0 0.00 0.00 0.00 93 1015.0
20260504042044 54 0 0.0 0.0 0.00 0.00 0.00 93 1015.1
20260504041600 54 0 0.0 0.0 0.00 0.00 0.00 93 1014.9
20260504041044 54 0 0.0 0.0 0.00 0.00 0.00 93 1014.9
20260504040544 54 0 0.0 0.0 0.00 0.00 0.00 93 1015.0
20260504040053 54 0 0.0 0.0 0.00 0.00 0.00 93 1014.9
20260504035545 54 0 0.0 0.0 0.00 0.00 0.00 93 1014.9
20260504035047 54 0 0.0 0.0 0.00 0.00 0.00 93 1014.8
20260504034547 54 0 0.0 0.0 0.00 0.00 0.00 93 1014.9
20260504034047 54 0 0.0 0.0 0.00 0.00 0.00 93 1014.7
20260504033544 54 0 0.0 0.0 0.00 0.00 0.00 93 1014.8
20260504033054 54 0 0.0 0.0 0.00 0.00 0.00 93 1014.8
20260504032544 54 0 0.0 0.0 0.00 0.00 0.00 93 1014.9
20260504032044 54 0 0.0 0.0 0.00 0.00 0.00 93 1014.9
20260504031551 54 0 0.0 0.0 0.00 0.00 0.00 93 1014.9
20260504031044 54 0 0.0 0.0 0.00 0.00 0.00 93 1014.8
20260504030544 54 0 0.0 0.0 0.00 0.00 0.00 93 1014.8
20260504030054 54 0 0.0 0.0 0.00 0.00 0.00 93 1014.8
20260504025545 54 0 0.0 0.0 0.00 0.00 0.00 93 1014.9
20260504025045 54 0 0.0 0.0 0.00 0.00 0.00 93 1014.8
20260504024614 54 0 0.0 0.0 0.00 0.00 0.00 93 1014.8
20260504024047 54 0 0.0 0.0 0.00 0.00 0.00 93 1014.8
20260504023545 54 0 0.0 0.0 0.00 0.00 0.00 93 1014.7
20260504023054 54 0 0.0 0.0 0.00 0.00 0.00 93 1014.7
20260504022545 54 0 0.0 0.0 0.00 0.00 0.00 93 1014.7
20260504022045 54 0 0.0 0.0 0.00 0.00 0.00 93 1014.6
20260504021550 54 0 0.0 0.0 0.00 0.00 0.00 93 1014.6
20260504021044 54 0 0.0 0.0 0.00 0.00 0.00 93 1014.6
20260504020544 54 0 0.0 0.0 0.00 0.00 0.00 93 1014.6
20260504020054 54 0 0.0 0.0 0.00 0.00 0.00 93 1014.4
20260504015543 54 0 0.0 0.0 0.00 0.00 0.00 93 1014.4
20260504015043 54 0 0.0 0.0 0.00 0.00 0.00 93 1014.5
20260504014548 54 0 0.0 0.0 0.00 0.00 0.00 93 1014.4
20260504014042 54 0 0.0 0.0 0.00 0.00 0.00 93 1014.4
20260504013543 54 0 0.0 0.0 0.00 0.00 0.00 93 1014.5
20260504013046 54 0 0.0 0.0 0.00 0.00 0.00 93 1014.4
20260504012546 54 0 0.0 0.0 0.00 0.00 0.00 93 1014.4
20260504012044 54 0 0.0 0.0 0.00 0.00 0.00 93 1014.5
20260504011552 54 0 0.0 0.0 0.00 0.00 0.00 93 1014.4
20260504011042 54 0 0.0 0.0 0.00 0.00 0.00 93 1014.5
20260504010543 54 0 0.0 0.0 0.00 0.00 0.00 93 1014.5
20260504010047 54 0 0.0 0.0 0.00 0.00 0.00 93 1014.5
20260504005543 54 0 0.0 0.0 0.00 0.00 0.00 93 1014.5
20260504005043 54 0 0.0 0.0 0.00 0.00 0.00 93 1014.4
20260504004550 55 0 0.0 0.0 0.00 0.00 0.00 92 1014.4
20260504004042 55 0 0.0 0.0 0.00 0.00 0.00 92 1014.4
20260504003545 55 0 0.0 0.0 0.00 0.00 0.00 92 1014.4
20260504003053 55 0 0.0 0.0 0.00 0.00 0.00 92 1014.3
20260504002542 55 0 0.0 0.0 0.00 0.00 0.00 92 1014.4
20260504002044 55 0 0.0 0.0 0.00 0.00 0.00 92 1014.4
20260504001552 55 0 0.0 0.0 0.00 0.00 0.00 92 1014.3
20260504001043 55 0 0.0 0.0 0.00 0.00 0.00 92 1014.3
20260504000542 55 0 0.0 0.0 0.00 0.00 0.00 92 1014.3
20260504000128 55 0 0.0 0.0 0.00 0.00 0.00 92 1014.2
20260503235543 55 0 0.0 0.0 0.00 0.00 0.00 92 1014.3
20260503235043 55 0 0.0 0.0 0.00 0.00 0.00 92 1014.3
20260503234559 55 0 0.0 0.0 0.00 0.00 0.00 92 1014.3
20260503234045 55 0 0.0 0.0 0.00 0.00 0.00 91 1014.2
20260503233543 55 0 0.0 0.0 0.00 0.00 0.00 91 1014.3
20260503233051 55 0 0.0 0.0 0.00 0.00 0.00 91 1014.3
20260503232542 55 0 0.0 0.0 0.00 0.00 0.00 91 1014.2
20260503232042 55 0 0.0 0.0 0.00 0.00 0.00 91 1014.2
20260503231551 56 0 0.0 0.0 0.00 0.00 0.00 91 1014.1
20260503231043 55 0 0.0 0.0 0.00 0.00 0.00 91 1014.3
20260503230543 56 0 0.0 0.0 0.00 0.00 0.00 91 1014.2
20260503230055 56 0 0.0 0.0 0.00 0.00 0.00 90 1014.2
20260503225547 56 0 0.0 0.0 0.00 0.00 0.00 90 1014.2
20260503225042 56 0 0.0 0.0 0.00 0.00 0.00 91 1014.2
20260503224552 56 0 0.0 0.0 0.00 0.00 0.00 90 1014.1
20260503224042 56 0 0.0 0.0 0.00 0.00 0.00 90 1014.1
20260503223543 56 0 0.0 0.0 0.00 0.00 0.00 90 1014.0
20260503223054 56 0 0.0 0.0 0.00 0.00 0.00 90 1013.9
20260503222542 56 0 0.0 0.0 0.00 0.00 0.00 90 1014.1
20260503222043 56 0 0.0 0.0 0.00 0.00 0.00 90 1014.0
20260503221559 56 0 0.0 0.0 0.00 0.00 0.00 90 1014.0
20260503221043 56 0 0.0 0.0 0.00 0.00 0.00 90 1013.9
20260503220543 56 0 0.0 0.0 0.00 0.00 0.00 89 1013.9
20260503220057 56 0 0.0 0.0 0.00 0.00 0.00 89 1013.8
20260503215543 56 0 0.0 0.0 0.00 0.00 0.00 89 1013.8
20260503215042 57 0 0.0 0.0 0.00 0.00 0.00 89 1013.7
20260503214550 57 0 0.0 0.0 0.00 0.00 0.00 89 1013.7
20260503214045 57 0 0.0 1.0 0.00 0.00 0.00 89 1013.8
20260503213542 57 0 0.0 1.0 0.00 0.00 0.00 89 1013.7
20260503213049 57 0 0.0 1.0 0.00 0.00 0.00 89 1013.7
20260503212544 57 0 0.0 0.0 0.00 0.00 0.00 88 1013.8
20260503212042 57 0 0.0 0.0 0.00 0.00 0.00 88 1013.7
20260503211602 57 0 0.0 0.0 0.00 0.00 0.00 88 1013.6
20260503211043 57 0 0.0 0.0 0.00 0.00 0.00 88 1013.5
20260503210547 57 0 0.0 0.0 0.00 0.00 0.00 87 1013.4
20260503210049 57 0 0.0 1.0 0.00 0.00 0.00 86 1013.4
20260503205543 57 0 0.0 1.0 0.00 0.00 0.00 85 1013.4
20260503205043 58 0 0.0 0.0 0.00 0.00 0.00 85 1013.2
20260503204551 58 0 0.0 1.0 0.00 0.00 0.00 83 1013.2
20260503204042 58 0 0.0 1.0 0.00 0.00 0.00 82 1013.2
20260503203542 59 0 0.0 0.0 0.00 0.00 0.00 81 1013.0
20260503203106 59 0 0.0 0.0 0.00 0.00 0.00 80 1013.1
20260503202546 59 0 0.0 0.0 0.00 0.00 0.00 80 1013.1
20260503202043 59 0 0.0 0.0 0.00 0.00 0.00 81 1012.9
20260503201548 59 0 0.0 0.0 0.00 0.00 0.00 81 1012.8
20260503201042 60 0 0.0 0.0 0.00 0.00 0.00 81 1012.7
20260503200542 60 0 0.0 0.0 0.00 0.00 0.00 81 1012.7
20260503200048 60 0 0.0 0.0 0.00 0.00 0.00 81 1012.6
20260503195542 60 0 0.0 0.0 0.00 0.00 0.00 81 1012.5
20260503195044 60 0 0.0 0.0 0.00 0.00 0.00 80 1012.4
20260503194555 60 0 0.0 0.0 0.00 0.00 0.00 79 1012.4
20260503194046 61 0 0.0 0.0 0.00 0.00 0.00 79 1012.4
20260503193544 61 0 0.0 0.0 0.00 0.00 0.00 78 1012.4
20260503193053 61 0 0.0 0.0 0.00 0.00 0.00 77 1012.3
20260503192544 61 0 0.0 0.0 0.00 0.00 0.00 76 1012.3
20260503192044 61 0 0.0 0.0 0.00 0.00 0.00 75 1012.3
20260503191554 62 0 0.0 0.0 0.00 0.00 0.00 75 1012.3
20260503191048 62 0 0.0 0.0 0.00 0.00 0.00 75 1012.2
20260503190545 62 0 0.0 0.0 0.00 0.00 0.00 74 1012.2
20260503190056 62 0 0.0 0.0 0.00 0.00 0.00 73 1012.0
20260503185544 62 0 0.0 0.0 0.00 0.00 0.00 73 1012.1
20260503185044 62 0 0.0 0.0 0.00 0.00 0.00 74 1012.0
20260503184553 62 0 0.0 0.0 0.00 0.00 0.00 73 1011.9
20260503184048 62 0 0.0 0.0 0.00 0.00 0.00 72 1011.9
20260503183545 63 0 0.0 0.0 0.00 0.00 0.00 73 1011.9
20260503183055 63 0 0.0 0.0 0.00 0.00 0.00 72 1011.8
20260503182544 63 0 0.0 0.0 0.00 0.00 0.00 73 1011.8
20260503182044 62 0 0.0 0.0 0.00 0.00 0.00 70 1011.7
20260503181601 62 0 0.0 0.0 0.00 0.00 0.00 71 1011.7
20260503181044 62 0 0.0 0.0 0.00 0.00 0.00 71 1011.8
20260503180544 62 0 0.0 0.0 0.00 0.00 0.00 71 1011.7
20260503180052 62 0 0.0 0.0 0.00 0.00 0.00 71 1011.7
20260503175543 63 0 0.0 0.0 0.00 0.01 0.00 72 1011.7
20260503175045 62 0 0.0 0.0 0.00 0.01 0.00 71 1011.5
20260503174552 63 0 0.0 0.0 0.00 0.01 0.00 72 1011.5
20260503174045 63 0 0.0 0.0 0.00 0.01 0.00 72 1011.5
20260503173545 63 0 0.0 0.0 0.00 0.01 0.00 72 1011.5
20260503173057 62 0 0.0 0.0 0.00 0.01 0.00 71 1011.5
20260503172544 62 0 0.0 0.0 0.00 0.01 0.00 72 1011.6